sampling_time,wmo_synop_id,msc_id,stn_nam,stn_elev,lat,long,stn_typ,date_tm,rpt_typ,result_time,crnt_buoy_lat,crnt_buoy_lat_qa_summary,crnt_buoy_long,crnt_buoy_long_qa_summary,avg_air_temp_pst10mts,avg_air_temp_pst10mts_qa_summary,avg_sea_sfc_temp_pst10mts,avg_sea_sfc_temp_pst10mts_qa_summary,avg_batry_volt_pst10mts,avg_batry_volt_pst10mts_qa_summary,avg_solr_panl_crnt_pst10mts,avg_solr_panl_crnt_pst10mts_qa_summary,avg_wtr_lvl_snsr_volt_pst10mts,avg_wtr_lvl_snsr_volt_pst10mts_qa_summary,avg_wave_hgt_pst20mts,avg_wave_hgt_pst20mts_qa_summary,pk_wave_hgt_pst20mts,pk_wave_hgt_pst20mts_qa_summary,sig_wave_pd_pst20mts,sig_wave_pd_pst20mts_qa_summary,sig_wave_hgt_pst20mts,sig_wave_hgt_pst20mts_qa_summary,avg_max_wave_hgt_pst20mts,avg_max_wave_hgt_pst20mts_qa_summary,avg_max_wave_pd_pst20mts,avg_max_wave_pd_pst20mts_qa_summary,avg_wave_pd_pst20mts,avg_wave_pd_pst20mts_qa_summary,pk_wave_pd_pst20mts,pk_wave_pd_pst20mts_qa_summary,avg_stn_pres_pst10mts,avg_stn_pres_pst10mts_qa_summary,avg_wnd_spd_pst10mts,avg_wnd_spd_pst10mts_qa_summary,avg_wnd_dir_pst10mts,avg_wnd_dir_pst10mts_qa_summary,max_avg_wnd_spd_pst10mts,max_avg_wnd_spd_pst10mts_qa_summary,wnd_snsr_vert_disp,wnd_snsr_vert_disp_qa_summary,pres_tend_char_pst3hrs,pres_tend_char_pst3hrs_data_flag,pres_tend_amt_pst3hrs,pres_tend_amt_pst3hrs_data_flag,avg_mslp_pst10mts,avg_mslp_pst10mts_data_flag,avg_stn_pres_pst10mts_1,avg_stn_pres_pst10mts_1_qa_summary,avg_stn_pres_pst10mts_2,avg_stn_pres_pst10mts_2_qa_summary,avg_wnd_spd_pst10mts_1,avg_wnd_spd_pst10mts_1_qa_summary,avg_wnd_spd_pst10mts_2,avg_wnd_spd_pst10mts_2_qa_summary,avg_wnd_dir_pst10mts_1,avg_wnd_dir_pst10mts_1_qa_summary,avg_wnd_dir_pst10mts_2,avg_wnd_dir_pst10mts_2_qa_summary,max_avg_wnd_spd_pst10mts_1,max_avg_wnd_spd_pst10mts_1_qa_summary,max_avg_wnd_spd_pst10mts_2,max_avg_wnd_spd_pst10mts_2_qa_summary
2021-10-20T00:00:00Z,44488,9302000,EAST CHEDABUCTO BAY,0,45.445,-60.9538,18,2021-10-20T00:00:00.000Z,108,2021-10-20T00:03:59.456Z,45.44557,100,-60.95368000000001,100,11.4,100,14.7,100,12.6,100,0.0,100,3.6,100,0.7,100,1.9,100,8.4,100,1.1,100,1.5,100,8.4,100,6.7,100,8.3,100,1001.7,100,25.2,100,323,100,32.0,100,5,100,1,1,0.4,1,1001.7,1,1001.7,100,1001.7,100,25.2,100,24.8,100,323,100,327,100,32.0,100,31.7,100
2021-10-20T00:10:00Z,44488,9302000,EAST CHEDABUCTO BAY,0,45.445,-60.9538,18,2021-10-20T00:10:00.000Z,110,2021-10-20T00:13:05.304Z,,-1,,-1,12.0,100,15.5,100,12.7,100,0.0,100,3.6,100,,-1,,-1,,-1,,-1,,-1,,-1,,-1,,-1,1001.8,100,24.5,100,334,100,30.2,100,5,100,1,1,0.4,1,1001.8,1,1001.8,100,1001.8,100,24.5,100,24.1,100,334,100,337,100,30.2,100,31.0,100
2021-10-20T00:20:00Z,44488,9302000,EAST CHEDABUCTO BAY,0,45.445,-60.9538,18,2021-10-20T00:20:00.000Z,110,2021-10-20T00:23:02.536Z,45.44552,100,-60.95368000000001,100,11.2,100,14.7,100,12.7,100,0.0,100,3.6,100,,-1,,-1,,-1,,-1,,-1,,-1,,-1,,-1,1001.9,100,23.0,100,338,100,29.9,100,5,100,2,1,0.4,1,1001.9,1,1001.9,100,1001.9,100,23.0,100,22.7,100,338,100,341,100,29.9,100,29.2,100
2021-10-20T00:30:00Z,44488,9302000,EAST CHEDABUCTO BAY,0,45.445,-60.9538,18,2021-10-20T00:30:00.000Z,110,2021-10-20T00:34:04.326Z,45.44552,100,-60.953669999999995,100,11.2,100,14.8,100,12.7,100,0.0,100,3.6,100,,-1,,-1,,-1,,-1,,-1,,-1,,-1,,-1,1001.9,100,22.0,100,347,100,27.7,100,5,100,3,1,0.3,1,1001.9,1,1001.9,100,1001.9,100,22.0,100,21.6,100,347,100,350,100,27.7,100,27.0,100
2021-10-20T00:40:00Z,44488,9302000,EAST CHEDABUCTO BAY,0,45.445,-60.9538,18,2021-10-20T00:40:00.000Z,110,2021-10-20T00:43:04.304Z,45.44552,100,-60.95365,100,11.4,100,14.8,100,12.6,100,0.0,100,3.6,100,,-1,,-1,,-1,,-1,,-1,,-1,,-1,,-1,1002.0,100,21.6,100,347,100,25.6,100,5,100,3,1,0.4,1,1002.0,1,1002.0,100,1002.0,100,21.6,100,21.2,100,347,100,350,100,25.6,100,24.8,100
2021-10-20T00:50:00Z,44488,9302000,EAST CHEDABUCTO BAY,0,45.445,-60.9538,18,2021-10-20T00:50:00.000Z,110,2021-10-20T00:53:16.954Z,45.44552,100,-60.953669999999995,100,11.3,100,14.7,100,12.6,100,0.0,100,3.6,100,,-1,,-1,,-1,,-1,,-1,,-1,,-1,,-1,1002.2,100,20.5,100,350,100,25.2,100,5,100,3,1,0.5,1,1002.2,1,1002.2,100,1002.2,100,20.5,100,20.2,100,350,100,353,100,25.2,100,25.2,100
2021-10-20T01:00:00Z,44488,9302000,EAST CHEDABUCTO BAY,0,45.445,-60.9538,18,2021-10-20T01:00:00.000Z,108,2021-10-20T01:04:21.502Z,45.4455,100,-60.95368000000001,100,11.4,100,14.7,100,12.6,100,0.0,100,3.6,100,0.8,100,1.8,100,8.6,100,1.2,100,1.5,100,8.8,100,6.9,100,9.5,100,1002.3,100,19.1,100,356,100,23.0,100,5,100,3,1,0.6,1,1002.3,1,1002.3,100,1002.3,100,19.1,100,18.7,100,356,100,0,100,23.0,100,22.7,100
2021-10-20T01:10:00Z,44488,9302000,EAST CHEDABUCTO BAY,0,45.445,-60.9538,18,2021-10-20T01:10:00.000Z,110,2021-10-20T01:16:16.726Z,45.4455,100,-60.9537,100,11.4,100,14.7,100,12.7,100,0.0,100,3.6,100,,-1,,-1,,-1,,-1,,-1,,-1,,-1,,-1,1002.3,100,18.0,100,356,100,22.0,100,5,100,3,1,0.6,1,1002.3,1,1002.3,100,1002.3,100,18.0,100,18.0,100,356,100,359,100,22.0,100,21.6,100
2021-10-20T01:20:00Z,44488,9302000,EAST CHEDABUCTO BAY,0,45.445,-60.9538,18,2021-10-20T01:20:00.000Z,110,2021-10-20T01:23:21.985Z,45.4455,100,-60.95368000000001,100,11.3,100,14.7,100,12.7,100,0.0,100,3.6,100,,-1,,-1,,-1,,-1,,-1,,-1,,-1,,-1,1002.3,100,18.4,100,351,100,24.5,100,5,100,3,1,0.5,1,1002.3,1,1002.3,100,1002.3,100,18.4,100,18.4,100,351,100,354,100,24.5,100,23.0,100
2021-10-20T01:30:00Z,44488,9302000,EAST CHEDABUCTO BAY,0,45.445,-60.9538,18,2021-10-20T01:30:00.000Z,110,2021-10-20T01:34:23.473Z,45.4455,100,-60.953669999999995,100,11.3,100,14.7,100,12.6,100,0.0,100,3.6,100,,-1,,-1,,-1,,-1,,-1,,-1,,-1,,-1,1002.2,100,18.7,100,355,100,22.3,100,5,100,3,1,0.5,1,1002.2,1,1002.2,100,1002.2,100,18.7,100,18.4,100,355,100,358,100,22.3,100,22.0,100
2021-10-20T01:40:00Z,44488,9302000,EAST CHEDABUCTO BAY,0,45.445,-60.9538,18,2021-10-20T01:40:00.000Z,110,2021-10-20T01:43:21.643Z,45.44553,100,-60.95367,100,11.4,100,14.7,100,12.6,100,0.0,100,3.6,100,,-1,,-1,,-1,,-1,,-1,,-1,,-1,,-1,1002.3,100,17.3,100,349,100,20.5,100,5,100,3,1,0.5,1,1002.3,1,1002.3,100,1002.3,100,17.3,100,16.9,100,349,100,353,100,20.5,100,20.5,100
2021-10-20T01:50:00Z,44488,9302000,EAST CHEDABUCTO BAY,0,45.445,-60.9538,18,2021-10-20T01:50:00.000Z,110,2021-10-20T01:53:25.381Z,45.44552,100,-60.95368000000001,100,11.4,100,14.7,100,12.6,100,0.0,100,3.6,100,,-1,,-1,,-1,,-1,,-1,,-1,,-1,,-1,1002.3,100,16.2,100,345,100,19.8,100,5,100,3,1,0.6,1,1002.3,1,1002.3,100,1002.3,100,16.2,100,15.8,100,345,100,348,100,19.8,100,19.8,100
2021-10-20T02:00:00Z,44488,9302000,EAST CHEDABUCTO BAY,0,45.445,-60.9538,18,2021-10-20T02:00:00.000Z,108,2021-10-20T02:04:22.319Z,45.44552,100,-60.95368000000001,100,11.3,100,14.7,100,12.6,100,0.0,100,3.6,100,0.6,100,1.6,100,8.5,100,1.0,100,1.3,100,8.5,100,7.0,100,8.3,100,1002.4,100,14.8,100,337,100,17.6,100,5,100,3,1,0.6,1,1002.4,1,1002.4,100,1002.4,100,14.8,100,14.8,100,337,100,341,100,17.6,100,18.0,100
2021-10-20T02:10:00Z,44488,9302000,EAST CHEDABUCTO BAY,0,45.445,-60.9538,18,2021-10-20T02:10:00.000Z,110,2021-10-20T02:16:36.105Z,45.44553,100,-60.953669999999995,100,11.2,100,14.6,100,12.6,100,0.0,100,3.6,100,,-1,,-1,,-1,,-1,,-1,,-1,,-1,,-1,1002.4,100,14.8,100,336,100,17.6,100,5,100,1,1,0.7,1,1002.4,1,1002.4,100,1002.3,100,14.8,100,14.4,100,336,100,339,100,17.6,100,17.6,100
2021-10-20T02:20:00Z,44488,9302000,EAST CHEDABUCTO BAY,0,45.445,-60.9538,18,2021-10-20T02:20:00.000Z,110,2021-10-20T02:23:44.230Z,45.44553,100,-60.95368000000001,100,11.1,100,14.6,100,12.6,100,0.0,100,3.6,100,,-1,,-1,,-1,,-1,,-1,,-1,,-1,,-1,1002.3,100,14.8,100,332,100,20.5,100,5,100,1,1,0.6,1,1002.3,1,1002.3,100,1002.3,100,14.8,100,14.4,100,332,100,336,100,20.5,100,20.5,100
2021-10-20T02:30:00Z,44488,9302000,EAST CHEDABUCTO BAY,0,45.445,-60.9538,18,2021-10-20T02:30:00.000Z,110,2021-10-20T02:33:43.043Z,45.44552,100,-60.95365,100,11.2,100,14.6,100,12.6,100,0.0,100,3.6,100,,-1,,-1,,-1,,-1,,-1,,-1,,-1,,-1,1002.2,100,14.8,100,328,100,19.8,100,5,100,1,1,0.5,1,1002.2,1,1002.2,100,1002.2,100,14.8,100,14.4,100,328,100,332,100,19.8,100,19.4,100
2021-10-20T02:40:00Z,44488,9302000,EAST CHEDABUCTO BAY,0,45.445,-60.9538,18,2021-10-20T02:40:00.000Z,110,2021-10-20T02:43:39.152Z,45.44555,100,-60.9537,100,11.2,100,14.6,100,12.6,100,0.0,100,3.6,100,,-1,,-1,,-1,,-1,,-1,,-1,,-1,,-1,1002.2,100,15.1,100,321,100,18.7,100,5,100,0,1,0.5,1,1002.2,1,1002.2,100,1002.2,100,15.1,100,14.4,100,321,100,324,100,18.7,100,18.0,100
2021-10-20T02:50:00Z,44488,9302000,EAST CHEDABUCTO BAY,0,45.445,-60.9538,18,2021-10-20T02:50:00.000Z,110,2021-10-20T02:53:38.974Z,45.44555,100,-60.9537,100,11.1,100,14.6,100,12.6,100,0.0,100,3.6,100,,-1,,-1,,-1,,-1,,-1,,-1,,-1,,-1,1002.2,100,15.1,100,322,100,18.4,100,5,100,0,1,0.5,1,1002.2,1,1002.2,100,1002.2,100,15.1,100,14.8,100,322,100,325,100,18.4,100,18.4,100
2021-10-20T03:00:00Z,44488,9302000,EAST CHEDABUCTO BAY,0,45.445,-60.9538,18,2021-10-20T03:00:00.000Z,108,2021-10-20T03:04:43.140Z,45.44555,100,-60.95368000000001,100,11.1,100,14.6,100,12.6,100,0.0,100,3.6,100,0.7,100,1.8,100,8.4,100,1.1,100,1.5,100,8.3,100,7.4,100,9.5,100,1002.2,100,14.4,100,324,100,18.4,100,5,100,0,1,0.5,1,1002.2,1,1002.2,100,1002.2,100,14.4,100,14.0,100,324,100,327,100,18.4,100,17.3,100
2021-10-20T03:10:00Z,44488,9302000,EAST CHEDABUCTO BAY,0,45.445,-60.9538,18,2021-10-20T03:10:00.000Z,110,2021-10-20T03:16:56.388Z,45.44553,100,-60.9537,100,11.1,100,14.6,100,12.6,100,0.0,100,3.6,100,,-1,,-1,,-1,,-1,,-1,,-1,,-1,,-1,1002.2,100,14.0,100,332,100,17.3,100,5,100,0,1,0.4,1,1002.2,1,1002.2,100,1002.2,100,14.0,100,13.7,100,332,100,335,100,17.3,100,16.6,100
2021-10-20T03:20:00Z,44488,9302000,EAST CHEDABUCTO BAY,0,45.445,-60.9538,18,2021-10-20T03:20:00.000Z,110,2021-10-20T03:23:47.290Z,45.44553,100,-60.95368000000001,100,11.0,100,14.6,100,12.6,100,0.0,100,3.6,100,,-1,,-1,,-1,,-1,,-1,,-1,,-1,,-1,1002.2,100,14.4,100,324,100,18.7,100,5,100,0,1,0.3,1,1002.2,1,1002.2,100,1002.2,100,14.4,100,14.0,100,324,100,327,100,18.7,100,18.7,100
2021-10-20T03:30:00Z,44488,9302000,EAST CHEDABUCTO BAY,0,45.445,-60.9538,18,2021-10-20T03:30:00.000Z,110,2021-10-20T03:33:53.001Z,45.44552,100,-60.953669999999995,100,11.0,100,14.6,100,12.6,100,0.0,100,3.6,100,,-1,,-1,,-1,,-1,,-1,,-1,,-1,,-1,1002.1,100,14.8,100,312,100,18.4,100,5,100,0,1,0.2,1,1002.1,1,1002.1,100,1002.1,100,14.8,100,14.4,100,312,100,315,100,18.4,100,18.0,100
2021-10-20T03:40:00Z,44488,9302000,EAST CHEDABUCTO BAY,0,45.445,-60.9538,18,2021-10-20T03:40:00.000Z,110,2021-10-20T03:45:13.216Z,45.44553,100,-60.95367,100,10.9,100,14.6,100,12.6,100,0.0,100,3.6,100,,-1,,-1,,-1,,-1,,-1,,-1,,-1,,-1,1002.0,100,15.8,100,320,100,19.4,100,5,100,0,1,-0.1,1,1002.0,1,1002.0,100,1002.0,100,15.8,100,15.1,100,320,100,323,100,19.4,100,19.1,100
2021-10-20T03:50:00Z,44488,9302000,EAST CHEDABUCTO BAY,0,45.445,-60.9538,18,2021-10-20T03:50:00.000Z,110,2021-10-20T03:54:11.837Z,45.44553,100,-60.95365,100,10.9,100,14.6,100,12.6,100,0.0,100,3.6,100,,-1,,-1,,-1,,-1,,-1,,-1,,-1,,-1,1002.0,100,15.1,100,315,100,19.1,100,5,100,8,1,-0.1,1,1002.0,1,1002.0,100,1002.0,100,15.1,100,14.4,100,315,100,318,100,19.1,100,18.4,100
2021-10-20T04:00:00Z,44488,9302000,EAST CHEDABUCTO BAY,0,45.445,-60.9538,18,2021-10-20T04:00:00.000Z,108,2021-10-20T04:03:11.530Z,45.44552,100,-60.95367,100,11.0,100,14.6,100,12.6,100,0.0,100,3.6,100,0.7,100,2.3,100,8.6,100,1.2,100,1.6,100,8.6,100,7.5,100,9.5,100,1002.0,100,14.8,100,329,100,18.7,100,5,100,8,1,-0.3,1,1002.0,1,1002.0,100,1002.0,100,14.8,100,14.4,100,329,100,332,100,18.7,100,18.7,100
2021-10-20T04:10:00Z,44488,9302000,EAST CHEDABUCTO BAY,0,45.445,-60.9538,18,2021-10-20T04:10:00.000Z,110,2021-10-20T04:17:14.314Z,45.4455,100,-60.953669999999995,100,10.9,100,14.6,100,12.6,100,0.0,100,3.6,100,,-1,,-1,,-1,,-1,,-1,,-1,,-1,,-1,1002.0,100,15.5,100,337,100,19.1,100,5,100,8,1,-0.3,1,1002.0,1,1002.0,100,1002.0,100,15.5,100,15.1,100,337,100,340,100,19.1,100,18.7,100
2021-10-20T04:20:00Z,44488,9302000,EAST CHEDABUCTO BAY,0,45.445,-60.9538,18,2021-10-20T04:20:00.000Z,110,2021-10-20T04:23:10.604Z,45.44553,100,-60.9537,100,10.5,100,14.6,100,12.6,100,0.0,100,3.6,100,,-1,,-1,,-1,,-1,,-1,,-1,,-1,,-1,1002.1,100,14.0,100,331,100,17.6,100,5,100,8,1,-0.2,1,1002.1,1,1002.1,100,1002.0,100,14.0,100,13.7,100,331,100,334,100,17.6,100,17.6,100
2021-10-20T04:30:00Z,44488,9302000,EAST CHEDABUCTO BAY,0,45.445,-60.9538,18,2021-10-20T04:30:00.000Z,110,2021-10-20T04:34:13.948Z,45.44553,100,-60.95365,100,10.6,100,14.6,100,12.6,100,0.0,100,3.6,100,,-1,,-1,,-1,,-1,,-1,,-1,,-1,,-1,1002.1,100,13.7,100,319,100,16.6,100,5,100,6,1,-0.1,1,1002.1,1,1002.1,100,1002.1,100,13.7,100,13.3,100,319,100,322,100,16.6,100,16.6,100
2021-10-20T04:40:00Z,44488,9302000,EAST CHEDABUCTO BAY,0,45.445,-60.9538,18,2021-10-20T04:40:00.000Z,110,2021-10-20T04:46:37.298Z,45.44552,100,-60.95365,100,10.8,100,14.6,100,12.6,100,0.0,100,3.6,100,,-1,,-1,,-1,,-1,,-1,,-1,,-1,,-1,1002.2,100,14.0,100,311,100,17.3,100,5,100,5,1,-0.1,1,1002.2,1,1002.2,100,1002.2,100,14.0,100,13.3,100,311,100,314,100,17.3,100,16.9,100
2021-10-20T04:50:00Z,44488,9302000,EAST CHEDABUCTO BAY,0,45.445,-60.9538,18,2021-10-20T04:50:00.000Z,110,2021-10-20T04:53:15.349Z,45.44552,100,-60.95368000000001,100,11.0,100,14.6,100,12.5,100,0.0,100,3.6,100,,-1,,-1,,-1,,-1,,-1,,-1,,-1,,-1,1002.2,100,15.8,100,297,100,21.6,100,5,100,5,1,-0.1,1,1002.2,1,1002.2,100,1002.2,100,15.8,100,14.8,100,297,100,300,100,21.6,100,20.9,100
2021-10-20T05:00:00Z,44488,9302000,EAST CHEDABUCTO BAY,0,45.445,-60.9538,18,2021-10-20T05:00:00.000Z,108,2021-10-20T05:03:14.049Z,45.44552,100,-60.95367,100,10.9,100,14.6,100,12.6,100,0.0,100,3.6,100,0.8,100,2.0,100,8.4,100,1.2,100,1.5,100,8.2,100,7.4,100,9.5,100,1002.2,100,17.3,100,289,100,21.2,100,5,100,5,1,-0.2,1,1002.2,1,1002.2,100,1002.2,100,17.3,100,16.2,100,289,100,293,100,21.2,100,20.2,100
2021-10-20T05:10:00Z,44488,9302000,EAST CHEDABUCTO BAY,0,45.445,-60.9538,18,2021-10-20T05:10:00.000Z,110,2021-10-20T05:16:28.154Z,45.4455,100,-60.953669999999995,100,10.6,100,14.6,100,12.6,100,0.0,100,3.6,100,,-1,,-1,,-1,,-1,,-1,,-1,,-1,,-1,1002.3,100,16.2,100,288,100,19.4,100,5,100,5,1,-0.1,1,1002.3,1,1002.3,100,1002.2,100,16.2,100,15.5,100,288,100,291,100,19.4,100,18.4,100
2021-10-20T05:20:00Z,44488,9302000,EAST CHEDABUCTO BAY,0,45.445,-60.9538,18,2021-10-20T05:20:00.000Z,110,2021-10-20T05:23:32.653Z,45.44555,100,-60.9537,100,10.8,100,14.6,100,12.6,100,0.0,100,3.6,100,,-1,,-1,,-1,,-1,,-1,,-1,,-1,,-1,1002.3,100,15.5,100,300,100,19.4,100,5,100,5,1,0.0,1,1002.3,1,1002.3,100,1002.3,100,15.5,100,14.8,100,300,100,303,100,19.4,100,19.1,100
2021-10-20T05:30:00Z,44488,9302000,EAST CHEDABUCTO BAY,0,45.445,-60.9538,18,2021-10-20T05:30:00.000Z,110,2021-10-20T05:34:29.840Z,45.44553,100,-60.9537,100,10.8,100,14.6,100,12.6,100,0.0,100,3.6,100,,-1,,-1,,-1,,-1,,-1,,-1,,-1,,-1,1002.3,100,15.8,100,308,100,19.8,100,5,100,3,1,0.1,1,1002.3,1,1002.3,100,1002.3,100,15.8,100,15.1,100,308,100,311,100,19.8,100,19.1,100
2021-10-20T05:40:00Z,44488,9302000,EAST CHEDABUCTO BAY,0,45.445,-60.9538,18,2021-10-20T05:40:00.000Z,110,2021-10-20T05:43:31.617Z,45.44553,100,-60.9537,100,10.9,100,14.6,100,12.5,100,0.0,100,3.6,100,,-1,,-1,,-1,,-1,,-1,,-1,,-1,,-1,1002.3,100,16.9,100,313,100,21.2,100,5,100,3,1,0.1,1,1002.3,1,1002.3,100,1002.3,100,16.9,100,16.2,100,313,100,316,100,21.2,100,20.5,100
2021-10-20T05:50:00Z,44488,9302000,EAST CHEDABUCTO BAY,0,45.445,-60.9538,18,2021-10-20T05:50:00.000Z,110,2021-10-20T05:53:33.852Z,45.44552,100,-60.95368000000001,100,10.6,100,14.6,100,12.5,100,0.0,100,3.6,100,,-1,,-1,,-1,,-1,,-1,,-1,,-1,,-1,1002.2,100,17.6,100,313,100,20.9,100,5,100,5,1,0.1,1,1002.2,1,1002.2,100,1002.2,100,17.6,100,16.9,100,313,100,316,100,20.9,100,20.2,100
2021-10-20T06:00:00Z,44488,9302000,EAST CHEDABUCTO BAY,0,45.445,-60.9538,18,2021-10-20T06:00:00.000Z,108,2021-10-20T06:04:35.794Z,45.44552,100,-60.95368000000001,100,10.4,100,14.6,100,12.5,100,0.0,100,3.6,100,0.7,100,1.8,100,8.5,100,1.1,100,1.3,100,8.7,100,7.3,100,10.0,100,1002.3,100,18.0,100,309,100,21.6,100,5,100,3,1,0.1,1,1002.3,1,1002.3,100,1002.3,100,18.0,100,17.3,100,309,100,312,100,21.6,100,21.2,100
2021-10-20T06:10:00Z,44488,9302000,EAST CHEDABUCTO BAY,0,45.445,-60.9538,18,2021-10-20T06:10:00.000Z,110,2021-10-20T06:16:33.623Z,45.4455,100,-60.95368000000001,100,10.1,100,14.6,100,12.6,100,0.0,100,3.6,100,,-1,,-1,,-1,,-1,,-1,,-1,,-1,,-1,1002.3,100,18.0,100,313,100,22.0,100,5,100,5,1,0.0,1,1002.3,1,1002.3,100,1002.2,100,18.0,100,17.3,100,313,100,317,100,22.0,100,20.9,100
2021-10-20T06:20:00Z,44488,9302000,EAST CHEDABUCTO BAY,0,45.445,-60.9538,18,2021-10-20T06:20:00.000Z,110,2021-10-20T06:23:33.501Z,45.44552,100,-60.95367,100,10.2,100,14.6,100,12.6,100,0.0,100,3.6,100,,-1,,-1,,-1,,-1,,-1,,-1,,-1,,-1,1002.2,100,18.0,100,313,100,20.5,100,5,100,4,1,0.1,1,1002.2,1,1002.2,100,1002.2,100,18.0,100,17.3,100,313,100,316,100,20.5,100,19.8,100
2021-10-20T06:30:00Z,44488,9302000,EAST CHEDABUCTO BAY,0,45.445,-60.9538,18,2021-10-20T06:30:00.000Z,110,2021-10-20T06:33:34.574Z,45.44553,100,-60.95368000000001,100,10.3,100,14.6,100,12.5,100,0.0,100,3.6,100,,-1,,-1,,-1,,-1,,-1,,-1,,-1,,-1,1002.2,100,17.3,100,317,100,22.0,100,5,100,0,1,0.1,1,1002.2,1,1002.2,100,1002.2,100,17.3,100,16.6,100,317,100,320,100,22.0,100,22.0,100
2021-10-20T06:40:00Z,44488,9302000,EAST CHEDABUCTO BAY,0,45.445,-60.9538,18,2021-10-20T06:40:00.000Z,110,2021-10-20T06:44:40.359Z,45.44553,100,-60.95367,100,10.4,100,14.6,100,12.5,100,0.0,100,3.6,100,,-1,,-1,,-1,,-1,,-1,,-1,,-1,,-1,1002.1,100,18.4,100,318,100,22.3,100,5,100,0,1,0.1,1,1002.1,1,1002.1,100,1002.1,100,18.4,100,18.0,100,318,100,321,100,22.3,100,22.0,100
2021-10-20T06:50:00Z,44488,9302000,EAST CHEDABUCTO BAY,0,45.445,-60.9538,18,2021-10-20T06:50:00.000Z,110,2021-10-20T06:54:52.136Z,45.4455,100,-60.95368000000001,100,10.5,100,14.6,100,12.5,100,0.0,100,3.6,100,,-1,,-1,,-1,,-1,,-1,,-1,,-1,,-1,1002.1,100,18.7,100,319,100,22.0,100,5,100,0,1,0.0,1,1002.1,1,1002.1,100,1002.1,100,18.7,100,18.0,100,319,100,323,100,22.0,100,21.6,100
2021-10-20T07:00:00Z,44488,9302000,EAST CHEDABUCTO BAY,0,45.445,-60.9538,18,2021-10-20T07:00:00.000Z,108,2021-10-20T07:03:47.488Z,45.4455,100,-60.95367,100,10.4,100,14.6,100,12.5,100,0.0,100,3.6,100,0.6,100,1.3,100,8.2,100,0.9,100,1.1,100,7.9,100,6.3,100,8.0,100,1002.1,100,18.4,100,320,100,21.2,100,5,100,0,1,0.1,1,1002.1,1,1002.1,100,1002.1,100,18.4,100,17.6,100,320,100,323,100,21.2,100,20.5,100
2021-10-20T07:10:00Z,44488,9302000,EAST CHEDABUCTO BAY,0,45.445,-60.9538,18,2021-10-20T07:10:00.000Z,110,2021-10-20T07:16:59.799Z,45.4455,100,-60.95368000000001,100,10.3,100,14.6,100,12.5,100,0.0,100,3.6,100,,-1,,-1,,-1,,-1,,-1,,-1,,-1,,-1,1002.2,100,19.1,100,319,100,23.0,100,5,100,0,1,0.2,1,1002.2,1,1002.2,100,1002.2,100,19.1,100,18.7,100,319,100,323,100,23.0,100,22.3,100
2021-10-20T07:20:00Z,44488,9302000,EAST CHEDABUCTO BAY,0,45.445,-60.9538,18,2021-10-20T07:20:00.000Z,110,2021-10-20T07:23:54.626Z,45.44552,100,-60.9537,100,10.0,100,14.6,100,12.5,100,0.0,100,3.6,100,,-1,,-1,,-1,,-1,,-1,,-1,,-1,,-1,1002.3,100,15.1,100,308,100,19.8,100,5,100,1,1,0.3,1,1002.3,1,1002.3,100,1002.3,100,15.1,100,14.8,100,308,100,311,100,19.8,100,18.7,100
2021-10-20T07:30:00Z,44488,9302000,EAST CHEDABUCTO BAY,0,45.445,-60.9538,18,2021-10-20T07:30:00.000Z,110,2021-10-20T07:34:56.922Z,45.44553,100,-60.9537,100,9.9,100,14.6,100,12.5,100,0.0,100,3.6,100,,-1,,-1,,-1,,-1,,-1,,-1,,-1,,-1,1002.4,100,14.4,100,310,100,18.0,100,5,100,2,1,0.3,1,1002.4,1,1002.4,100,1002.4,100,14.4,100,13.7,100,310,100,314,100,18.0,100,18.0,100
2021-10-20T07:40:00Z,44488,9302000,EAST CHEDABUCTO BAY,0,45.445,-60.9538,18,2021-10-20T07:40:00.000Z,110,2021-10-20T07:43:52.456Z,45.4455,100,-60.9537,100,9.9,100,14.6,100,12.5,100,0.0,100,3.6,100,,-1,,-1,,-1,,-1,,-1,,-1,,-1,,-1,1002.5,100,14.4,100,297,100,18.0,100,5,100,3,1,0.3,1,1002.5,1,1002.5,100,1002.5,100,14.4,100,14.0,100,297,100,300,100,18.0,100,17.6,100
2021-10-20T07:50:00Z,44488,9302000,EAST CHEDABUCTO BAY,0,45.445,-60.9538,18,2021-10-20T07:50:00.000Z,110,2021-10-20T07:53:56.711Z,45.4455,100,-60.9537,100,9.8,100,14.6,100,12.5,100,0.0,100,3.6,100,,-1,,-1,,-1,,-1,,-1,,-1,,-1,,-1,1002.5,100,14.0,100,297,100,18.4,100,5,100,3,1,0.3,1,1002.5,1,1002.5,100,1002.5,100,14.0,100,13.7,100,297,100,300,100,18.4,100,18.0,100
2021-10-20T08:00:00Z,44488,9302000,EAST CHEDABUCTO BAY,0,45.445,-60.9538,18,2021-10-20T08:00:00.000Z,108,2021-10-20T08:04:04.822Z,45.44548,100,-60.95372,100,9.8,100,14.6,100,12.5,100,0.0,100,3.6,100,0.7,100,1.6,100,8.8,100,1.1,100,1.4,100,9.1,100,6.8,100,8.7,100,1002.5,100,16.6,100,295,100,20.9,100,5,100,3,1,0.3,1,1002.5,1,1002.5,100,1002.5,100,16.6,100,15.8,100,295,100,298,100,20.9,100,19.8,100
2021-10-20T08:10:00Z,44488,9302000,EAST CHEDABUCTO BAY,0,45.445,-60.9538,18,2021-10-20T08:10:00.000Z,110,2021-10-20T08:17:07.620Z,45.4455,100,-60.95372,100,9.9,100,14.6,100,12.5,100,0.0,100,3.6,100,,-1,,-1,,-1,,-1,,-1,,-1,,-1,,-1,1002.5,100,17.3,100,300,100,20.9,100,5,100,3,1,0.3,1,1002.5,1,1002.5,100,1002.5,100,17.3,100,16.9,100,300,100,304,100,20.9,100,20.5,100
2021-10-20T08:20:00Z,44488,9302000,EAST CHEDABUCTO BAY,0,45.445,-60.9538,18,2021-10-20T08:20:00.000Z,110,2021-10-20T08:24:11.045Z,45.44552,100,-60.95368000000001,100,9.8,100,14.6,100,12.5,100,0.0,100,3.6,100,,-1,,-1,,-1,,-1,,-1,,-1,,-1,,-1,1002.5,100,20.5,100,305,100,24.1,100,5,100,3,1,0.3,1,1002.5,1,1002.5,100,1002.5,100,20.5,100,19.8,100,305,100,308,100,24.1,100,23.8,100
2021-10-20T08:30:00Z,44488,9302000,EAST CHEDABUCTO BAY,0,45.445,-60.9538,18,2021-10-20T08:30:00.000Z,110,2021-10-20T08:33:08.213Z,45.4455,100,-60.95365,100,9.9,100,14.6,100,12.5,100,0.0,100,3.6,100,,-1,,-1,,-1,,-1,,-1,,-1,,-1,,-1,1002.5,100,19.1,100,301,100,23.0,100,5,100,3,1,0.2,1,1002.5,1,1002.5,100,1002.5,100,19.1,100,18.4,100,301,100,304,100,23.0,100,22.7,100
2021-10-20T08:40:00Z,44488,9302000,EAST CHEDABUCTO BAY,0,45.445,-60.9538,18,2021-10-20T08:40:00.000Z,110,2021-10-20T08:43:18.359Z,45.44553,100,-60.95372,100,9.9,100,14.6,100,12.5,100,0.0,100,3.6,100,,-1,,-1,,-1,,-1,,-1,,-1,,-1,,-1,1002.5,100,20.9,100,307,100,24.8,100,5,100,3,1,0.3,1,1002.5,1,1002.5,100,1002.5,100,20.9,100,20.2,100,307,100,310,100,24.8,100,24.5,100
2021-10-20T08:50:00Z,44488,9302000,EAST CHEDABUCTO BAY,0,45.445,-60.9538,18,2021-10-20T08:50:00.000Z,110,2021-10-20T08:54:19.599Z,45.44552,100,-60.95373000000001,100,9.9,100,14.6,100,12.4,100,0.0,100,3.6,100,,-1,,-1,,-1,,-1,,-1,,-1,,-1,,-1,1002.5,100,22.3,100,314,100,27.4,100,5,100,3,1,0.3,1,1002.5,1,1002.5,100,1002.5,100,22.3,100,21.6,100,314,100,317,100,27.4,100,25.9,100
2021-10-20T09:00:00Z,44488,9302000,EAST CHEDABUCTO BAY,0,45.445,-60.9538,18,2021-10-20T09:00:00.000Z,108,2021-10-20T09:03:21.369Z,45.4455,100,-60.95368000000001,100,9.8,100,14.6,100,12.5,100,0.0,100,3.6,100,0.6,100,1.5,100,8.3,100,0.9,100,1.2,100,8.3,100,6.2,100,8.3,100,1002.5,100,24.5,100,316,100,29.5,100,5,100,3,1,0.3,1,1002.5,1,1002.5,100,1002.5,100,24.5,100,23.8,100,316,100,319,100,29.5,100,28.8,100
2021-10-20T09:10:00Z,44488,9302000,EAST CHEDABUCTO BAY,0,45.445,-60.9538,18,2021-10-20T09:10:00.000Z,110,2021-10-20T09:16:21.905Z,45.44552,100,-60.95372,100,9.9,100,14.7,100,12.5,100,0.0,100,3.6,100,,-1,,-1,,-1,,-1,,-1,,-1,,-1,,-1,1002.6,100,24.8,100,319,100,30.2,100,5,100,3,1,0.3,1,1002.6,1,1002.6,100,1002.6,100,24.8,100,24.1,100,319,100,322,100,30.2,100,28.8,100
2021-10-20T09:20:00Z,44488,9302000,EAST CHEDABUCTO BAY,0,45.445,-60.9538,18,2021-10-20T09:20:00.000Z,110,2021-10-20T09:23:22.487Z,45.44552,100,-60.9537,100,9.9,100,14.7,100,12.5,100,0.0,100,3.6,100,,-1,,-1,,-1,,-1,,-1,,-1,,-1,,-1,1002.6,100,24.8,100,316,100,28.8,100,5,100,2,1,0.4,1,1002.6,1,1002.6,100,1002.6,100,24.8,100,24.1,100,316,100,319,100,28.8,100,28.1,100
2021-10-20T09:30:00Z,44488,9302000,EAST CHEDABUCTO BAY,0,45.445,-60.9538,18,2021-10-20T09:30:00.000Z,110,2021-10-20T09:33:29.031Z,45.44552,100,-60.95372,100,9.9,100,14.7,100,12.5,100,0.0,100,3.6,100,,-1,,-1,,-1,,-1,,-1,,-1,,-1,,-1,1002.6,100,23.8,100,315,100,28.1,100,5,100,1,1,0.5,1,1002.6,1,1002.6,100,1002.6,100,23.8,100,23.0,100,315,100,318,100,28.1,100,26.6,100